Regional Weather Roundup
Issued by NWS

Home | Current Version | Previous Version | Text Only | Print | Product List | Glossary Off
Versions: 1 2 3 4 5 6 7 8 9 10 11 12 13 14 15 16 17 18 19 20 21 22 23 24 25 26 27 28 29 30 31 32 33 34 35 36 37 38 39 40 41 42 43 44 45 46 47 48 49 50

403
ASUS43 KLMK 192210
RWRKY
KENTUCKY REGIONAL WEATHER ROUNDUP
NATIONAL WEATHER SERVICE LOUISVILLE KY
500 PM EST SUN FEB 19 2017

NOTE "FAIR" INDICATES FEW OR NO CLOUDS BELOW 12,000 FEET
WITH NO SIGNIFICANT WEATHER AND/OR OBSTRUCTIONS TO VISIBILITY.

KYZ001>023-026-027-061>063-070>075-192300-
WESTERN AND SOUTH CENTRAL KENTUCKY

CITY           SKY/WX    TMP DP  RH WIND       PRES   REMARKS
PADUCAH        SUNNY     65  54  67 E6        30.07F
HENDERSON      PTSUNNY   57  50  77 SE5       30.11S
OWENSBORO      PTSUNNY   55  50  83 S3        30.13  HAZE
HOPKINSVILLE   SUNNY     68  55  61 CALM      30.09S
BOWLING GREEN  SUNNY     66  51  58 SW3       30.12R
GLASGOW        SUNNY     65  50  58 W5        30.12R
$$

KYZ024-025-028>034-038-045-046-053-192300-
NORTH CENTRAL KENTUCKY

CITY           SKY/WX    TMP DP  RH WIND       PRES   REMARKS
LOUISVILLE/SDF CLOUDY    58  48  69 W6        30.12S
LOUISVILLE/LOU CLOUDY    58  48  69 W7        30.13R
FORT KNOX      CLOUDY    55  50  82 VRB3      30.12R
$$

KYZ035>037-039>044-047>052-055>060-089>105-192300-
NORTHEAST KENTUCKY

CITY           SKY/WX    TMP DP  RH WIND       PRES   REMARKS
LEXINGTON      SUNNY     60  48  64 N6        30.13R
COVINGTON      MOSUNNY   59  47  64 SW6       30.11R
FRANKFORT      PTSUNNY   57  47  69 W6        30.12R
$$

KYZ054-064>069-076>088-106>120-192300-
SOUTHEAST KENTUCKY

CITY           SKY/WX    TMP DP  RH WIND       PRES   REMARKS
JACKSON        SUNNY     62  45  53 W3        30.11R
LONDON         SUNNY     64  44  48 CALM      30.11R
SOMERSET       SUNNY     63  45  51 CALM      30.12S
MIDDLESBORO    SUNNY     65  47  52 CALM      30.12R
MONTICELLO     CLEAR     66  47  50 W6        30.13R
$$





USA.gov is the U.S. government's official web portal to all federal, state and local government web resources and services.